Weather History for KMVY - May, 2013

Change the Weather History Date:

Friday, May 10, 2013

  Actual Average Record
Temperature  
Mean Temperature 63 °F -  
Max Temperature 75 °F 61 °F 79 °F (1963)
Min Temperature 53 °F 45 °F 32 °F (2001)
Degree Days  
Heating Degree Days 2    
Growing Degree Days 13 (Base 50)    
Moisture  
Dew Point 54 °F    
Average Humidity 86    
Maximum Humidity 100    
Minimum Humidity 43    
Precipitation  
Precipitation 0.00 in - - ()
Sea Level Pressure  
Sea Level Pressure 29.95 in    
Wind  
Wind Speed 7 mph (WSW)    
Max Wind Speed 17 mph    
Max Gust Speed 20 mph    
Visibility 6 miles    
Events Fog    
Averages and records for this station are not official NWS values.
T = Trace of Precipitation, MM = Missing Value Source: NWS Daily Summary

Daily Weather History Graph

Daily Weather History Graph

Search for Another Location

Airport or City:

Trip Planner

Search our weather history database for the weather conditions in past years. The results will help you decide how hot, cold, wet, or windy it might be!

Date:

Astronomy

May. 10, 2013 Rise Set
Actual Time 5:28 AM EDT 7:49 PM EDT
Civil Twilight 4:57 AM EDT 8:20 PM EDT
Nautical Twilight 4:19 AM EDT 8:59 PM EDT
Astronomical Twilight 3:36 AM EDT 9:42 PM EDT
Moon 5:50 AM EDT (5/10) 8:36 PM EDT (5/10)
Length of Visible Light 15h 23m
Length of Day
14h 21m
New Moon, 0% of the Moon is Illuminated
May 10
New Moon
May 18
First Quarter
May 25
Full
May 31
Last Quarter
Jun 8
New

Hourly Weather History & Observations

Time (EDT) Temp. Dew Point Humidity Pressure Visibility Wind Dir Wind Speed Gust Speed Precip Events Conditions
1:40 AM 55.4 °F 53.6 °F 94% 29.91 in 2.5 mi West 10.4 mph - N/A   Overcast
1:53 AM 54.0 °F 54.0 °F 100% 29.91 in 1.5 mi West 8.1 mph 16.1 mph N/A   Overcast
2:19 AM 55.4 °F 55.4 °F 100% 29.91 in 0.8 mi WSW 9.2 mph - N/A   Mist
2:53 AM 55.0 °F 55.0 °F 100% 29.91 in 0.8 mi WSW 4.6 mph - N/A   Overcast
3:00 AM 55.4 °F 55.4 °F 100% 29.91 in 1.2 mi West 6.9 mph - N/A   Overcast
3:05 AM 55.4 °F 55.4 °F 100% 29.91 in 3.0 mi WSW 3.5 mph - N/A   Overcast
4:53 AM 55.9 °F 55.0 °F 97% 29.94 in 9.0 mi West 3.5 mph - N/A   Overcast
5:08 AM 55.4 °F 55.4 °F 100% 29.93 in 10.0 mi Calm Calm - N/A   Overcast
5:38 AM 53.6 °F 53.6 °F 100% 29.94 in 0.8 mi WSW 3.5 mph - N/A   Overcast
5:53 AM 54.0 °F 54.0 °F 100% 29.95 in 0.5 mi WSW 3.5 mph - N/A Fog Fog
6:15 AM 53.6 °F 53.6 °F 100% 29.95 in 0.2 mi West 3.5 mph - N/A Fog Fog
6:23 AM 53.6 °F 53.6 °F 100% 29.95 in 0.2 mi WNW 3.5 mph - N/A Fog Fog
6:53 AM 54.0 °F 54.0 °F 100% 29.95 in 0.2 mi West 4.6 mph - N/A Fog Fog
7:05 AM 55.4 °F 55.4 °F 100% 29.96 in 0.5 mi West 5.8 mph - N/A Fog Fog
7:40 AM 57.2 °F 57.2 °F 100% 29.96 in 6.0 mi WSW 3.5 mph - N/A   Overcast
7:53 AM 57.0 °F 57.0 °F 100% 29.96 in 10.0 mi WSW 6.9 mph - N/A   Scattered Clouds
8:21 AM 59.0 °F 57.2 °F 94% 29.96 in 10.0 mi Variable 5.8 mph - N/A   Mostly Cloudy
8:53 AM 64.0 °F 57.0 °F 78% 29.97 in 10.0 mi WSW 8.1 mph - N/A   Partly Cloudy
9:53 AM 68.0 °F 55.0 °F 63% 29.97 in 10.0 mi WSW 10.4 mph - N/A   Clear
10:53 AM 72.0 °F 53.1 °F 51% 29.97 in 10.0 mi Variable 5.8 mph - N/A   Clear
11:53 AM 73.0 °F 52.0 °F 48% 29.97 in 10.0 mi West 13.8 mph 19.6 mph N/A   Clear
12:53 PM 73.9 °F 50.0 °F 43% 29.96 in 10.0 mi WSW 10.4 mph - N/A   Clear
1:53 PM 73.9 °F 52.0 °F 46% 29.96 in 10.0 mi SSW 17.3 mph - N/A   Clear
2:53 PM 68.0 °F 53.1 °F 59% 29.97 in 10.0 mi SW 15.0 mph - N/A   Clear
3:53 PM 66.0 °F 53.1 °F 63% 29.97 in 10.0 mi SW 12.7 mph - N/A   Clear
4:53 PM 64.9 °F 54.0 °F 68% 29.98 in 10.0 mi SSW 13.8 mph - N/A   Clear
5:53 PM 60.1 °F 53.1 °F 78% 29.97 in 10.0 mi SW 11.5 mph - N/A   Clear
6:53 PM 59.0 °F 53.1 °F 81% 29.96 in 10.0 mi SW 9.2 mph - N/A   Clear
7:53 PM 57.0 °F 53.1 °F 87% 29.98 in 9.0 mi SSW 9.2 mph - N/A   Clear
8:53 PM 55.9 °F 54.0 °F 93% 29.98 in 9.0 mi SSW 8.1 mph - N/A   Clear
9:53 PM 55.9 °F 54.0 °F 93% 29.99 in 8.0 mi SW 5.8 mph - N/A   Clear
10:53 PM 55.0 °F 53.1 °F 93% 29.99 in 5.0 mi SW 5.8 mph - N/A   Clear
11:53 PM 55.0 °F 54.0 °F 96% 29.97 in 4.0 mi SW 6.9 mph - N/A   Clear